FRS111N EDDR-EDFH

Flight info

Callsign FRS111N
Flight time N/A
Altitude
Route
Aircraft C408

Departure

Time 2026-04-26 17:54
Airport Saarbrücken Airport (EDDR)

Arrival

Time N/A
Airport Frankfurt-Hahn Airport (EDFH)
Time Latitude Longitude Altitude Speed Heading
2026-04-26 17:49 49.21722 7.11016 1059 ft 0 kts 153°
2026-04-26 17:50 49.21716 7.11009 1059 ft 9 kts 249°
2026-04-26 17:50 49.21714 7.10855 1057 ft 19 kts 264°
2026-04-26 17:50 49.21679 7.10678 1055 ft 17 kts 191°
2026-04-26 17:51 49.21598 7.10647 1055 ft 12 kts 258°
2026-04-26 17:51 49.21592 7.10479 1053 ft 19 kts 269°
2026-04-26 17:51 49.21585 7.10247 1050 ft 24 kts 268°
2026-04-26 17:51 49.21560 7.09991 1047 ft 26 kts 248°
2026-04-26 17:52 49.21514 7.09848 1045 ft 0 kts 245°
2026-04-26 17:52 49.21509 7.09829 1045 ft 11 kts 241°
2026-04-26 17:52 49.21424 7.09852 1045 ft 22 kts 83°
2026-04-26 17:52 49.21438 7.10297 1048 ft 71 kts 87°
2026-04-26 17:53 49.21472 7.11324 1101 ft 116 kts 86°
2026-04-26 17:53 49.21690 7.12375 1537 ft 113 kts 11°
2026-04-26 17:53 49.22476 7.11739 1625 ft 146 kts 318°
2026-04-26 17:54 49.23874 7.09190 2011 ft 157 kts 318°
2026-04-26 17:54 49.24775 7.08353 2276 ft 157 kts 340°
2026-04-26 17:54 49.25860 7.07825 2297 ft 171 kts 347°
2026-04-26 17:54 49.27062 7.07358 2219 ft 182 kts 349°
2026-04-26 17:55 49.28309 7.06953 2212 ft 183 kts 353°
2026-04-26 17:55 49.29559 7.06648 2311 ft 179 kts 356°
2026-04-26 17:55 49.30809 7.06387 2305 ft 187 kts 353°
2026-04-26 17:55 49.32077 7.06022 2297 ft 183 kts 353°
2026-04-26 17:56 49.33330 7.05675 2334 ft 177 kts 358°
2026-04-26 17:56 49.35654 7.06515 2666 ft 177 kts 22°
2026-04-26 17:57 49.38037 7.07784 2753 ft 184 kts 22°
2026-04-26 17:57 49.39259 7.08400 2751 ft 186 kts 19°
2026-04-26 17:57 49.40498 7.08955 2752 ft 184 kts 18°
2026-04-26 17:57 49.41742 7.09461 2749 ft 185 kts 17°
2026-04-26 17:58 49.45513 7.10953 2754 ft 188 kts 16°
2026-04-26 17:59 49.48075 7.11814 2753 ft 188 kts 13°
2026-04-26 17:59 49.49365 7.12192 2764 ft 189 kts 12°
2026-04-26 17:59 49.50659 7.12575 2754 ft 190 kts 13°
2026-04-26 17:59 49.51941 7.12943 2765 ft 190 kts 13°
2026-04-26 18:00 49.53234 7.13322 2753 ft 187 kts 13°
2026-04-26 18:00 49.54499 7.13707 2758 ft 184 kts 13°
2026-04-26 18:00 49.55761 7.14078 2754 ft 184 kts 13°
2026-04-26 18:00 49.57021 7.14438 2758 ft 184 kts 13°
2026-04-26 18:01 49.58274 7.14809 2761 ft 184 kts 13°
2026-04-26 18:01 49.59525 7.15171 2759 ft 181 kts 12°
2026-04-26 18:01 49.60769 7.15542 2765 ft 183 kts 13°
2026-04-26 18:01 49.62024 7.15902 2764 ft 183 kts 13°
2026-04-26 18:02 49.63273 7.16289 2759 ft 184 kts 14°
2026-04-26 18:02 49.63696 7.16414 2754 ft 183 kts 13°
2026-04-26 18:02 49.65759 7.16995 2763 ft 182 kts 13°
2026-04-26 18:02 49.67010 7.17344 2767 ft 183 kts 13°
2026-04-26 18:03 49.68260 7.17701 2770 ft 183 kts 13°
2026-04-26 18:03 49.69515 7.18053 2772 ft 184 kts 13°
2026-04-26 18:03 49.70771 7.18451 2766 ft 183 kts 20°
2026-04-26 18:03 49.71899 7.19333 2770 ft 182 kts 32°
2026-04-26 18:04 49.72964 7.20287 2766 ft 166 kts 32°
2026-04-26 18:04 49.73887 7.21121 2749 ft 142 kts 32°
2026-04-26 18:04 49.74705 7.21852 2759 ft 132 kts 32°
2026-04-26 18:05 49.76247 7.23210 2763 ft 126 kts 32°
2026-04-26 18:05 49.77009 7.23860 2726 ft 123 kts 32°
2026-04-26 18:05 49.77796 7.24505 2607 ft 141 kts 32°
2026-04-26 18:05 49.78710 7.25367 2536 ft 162 kts 33°
2026-04-26 18:06 49.79680 7.26370 2535 ft 172 kts 39°
2026-04-26 18:06 49.80627 7.27552 2533 ft 177 kts 40°
2026-04-26 18:06 49.81597 7.28759 2535 ft 180 kts 40°
2026-04-26 18:06 49.82575 7.29995 2527 ft 182 kts 40°
2026-04-26 18:07 49.83538 7.31273 2531 ft 182 kts 44°
2026-04-26 18:07 49.84430 7.32613 2523 ft 174 kts 45°
2026-04-26 18:07 49.85210 7.33809 2516 ft 144 kts 45°
2026-04-26 18:07 49.85445 7.34170 2508 ft 138 kts 45°
2026-04-26 18:08 49.86482 7.35661 2399 ft 113 kts 30°
2026-04-26 18:08 49.87248 7.35338 2318 ft 117 kts 330°
2026-04-26 18:08 49.87858 7.34509 2257 ft 117 kts 317°
2026-04-26 18:08 49.88347 7.33480 2114 ft 119 kts 309°
2026-04-26 18:09 49.88781 7.32361 2122 ft 121 kts 301°
2026-04-26 18:09 49.89117 7.31156 2136 ft 126 kts 290°
2026-04-26 18:09 49.89332 7.29800 2278 ft 131 kts 283°
2026-04-26 18:09 49.89502 7.28406 2406 ft 131 kts 283°
2026-04-26 18:10 49.89646 7.27079 2418 ft 120 kts 284°
2026-04-26 18:10 49.89791 7.25827 2493 ft 121 kts 287°
2026-04-26 18:10 49.90006 7.24587 2539 ft 116 kts 292°
2026-04-26 18:10 49.90272 7.23444 2556 ft 106 kts 297°
2026-04-26 18:11 49.90585 7.22483 2474 ft 96 kts 311°
2026-04-26 18:11 49.91077 7.22435 2300 ft 84 kts 37°
2026-04-26 18:11 49.91555 7.22980 2171 ft 84 kts 35°
2026-04-26 18:11 49.92068 7.23487 1952 ft 89 kts 37°
2026-04-26 18:12 49.92395 7.23907 1909 ft 95 kts 39°
2026-04-26 18:12 49.92935 7.24470 1802 ft 89 kts 32°
2026-04-26 18:12 49.93436 7.24966 1685 ft 79 kts 32°
2026-04-26 18:12 49.93853 7.25381 1661 ft 64 kts 32°
2026-04-26 18:13 49.94264 7.25787 1668 ft 89 kts 31°
2026-04-26 18:13 49.94836 7.26347 1869 ft 101 kts 32°
2026-04-26 18:13 49.95437 7.26926 2170 ft 103 kts 31°
2026-04-26 18:13 49.95852 7.27298 2339 ft 108 kts 31°
2026-04-26 18:14 49.96826 7.27805 2555 ft 118 kts 348°
2026-04-26 18:14 49.97380 7.26863 2862 ft 124 kts 292°
2026-04-26 18:14 49.97407 7.25585 3186 ft 124 kts 239°
2026-04-26 18:14 49.96675 7.24792 3279 ft 134 kts 201°
2026-04-26 18:15 49.95879 7.24176 3357 ft 120 kts 208°
2026-04-26 18:15 49.95148 7.23599 3393 ft 113 kts 196°
2026-04-26 18:15 49.94398 7.23186 3341 ft 118 kts 201°
2026-04-26 18:15 49.93687 7.22615 3162 ft 112 kts 207°
2026-04-26 18:16 49.93026 7.22024 2965 ft 108 kts 205°
2026-04-26 18:16 49.91881 7.22039 2519 ft 89 kts 116°
2026-04-26 18:16 49.91768 7.22898 2309 ft 80 kts 79°
2026-04-26 18:17 49.92023 7.23534 2064 ft 75 kts 34°
2026-04-26 18:17 49.92449 7.23956 1903 ft 69 kts 29°
2026-04-26 18:17 49.92883 7.24390 1777 ft 84 kts 34°
2026-04-26 18:17 49.93362 7.24892 1685 ft 82 kts 33°
2026-04-26 18:18 49.93794 7.25322 1663 ft 66 kts 32°
2026-04-26 18:18 49.94291 7.25811 1694 ft 101 kts 32°
2026-04-26 18:18 49.94916 7.26418 1893 ft 109 kts 31°
2026-04-26 18:18 49.95447 7.27146 2324 ft 95 kts 72°
2026-04-26 18:19 49.95300 7.28254 2484 ft 114 kts 112°
2026-04-26 18:19 49.94887 7.29419 2546 ft 122 kts 129°
2026-04-26 18:19 49.94032 7.29523 2592 ft 144 kts 208°
2026-04-26 18:19 49.93182 7.28715 2708 ft 147 kts 209°
2026-04-26 18:20 49.92278 7.27920 2773 ft 145 kts 207°
2026-04-26 18:20 49.91470 7.27188 2665 ft 131 kts 210°
2026-04-26 18:20 49.90993 7.26133 2608 ft 117 kts 260°
2026-04-26 18:20 49.90931 7.25339 2499 ft 108 kts 272°
2026-04-26 18:21 49.91100 7.23863 2252 ft 102 kts 302°
2026-04-26 18:21 49.91527 7.23112 2185 ft 86 kts
2026-04-26 18:21 49.92060 7.23524 1949 ft 96 kts 36°
2026-04-26 18:21 49.92630 7.24181 1818 ft 97 kts 32°
2026-04-26 18:22 49.93181 7.24708 1711 ft 90 kts 33°
2026-04-26 18:22 49.93664 7.25194 1666 ft 77 kts 32°
2026-04-26 18:22 49.94173 7.25587 1949 ft 83 kts 358°
2026-04-26 18:22 49.94594 7.24901 2182 ft 104 kts 304°
2026-04-26 18:23 49.94846 7.23850 2447 ft 113 kts 241°
2026-04-26 18:23 49.94184 7.22997 2488 ft 135 kts 213°
2026-04-26 18:23 49.93382 7.22217 2508 ft 136 kts 207°
2026-04-26 18:23 49.92597 7.21486 2533 ft 124 kts 205°
2026-04-26 18:24 49.91981 7.21769 2493 ft 98 kts 123°
2026-04-26 18:24 49.91694 7.22688 2273 ft 90 kts 90°
2026-04-26 18:24 49.91985 7.23493 2030 ft 102 kts 36°
2026-04-26 18:24 49.92630 7.24129 1842 ft 111 kts 32°
2026-04-26 18:25 49.93178 7.24692 1726 ft 79 kts 33°
2026-04-26 18:25 49.93575 7.25103 1678 ft 59 kts 33°
2026-04-26 18:25 49.93945 7.25470 1659 ft 83 kts 34°
2026-04-26 18:25 49.94517 7.26048 1795 ft 103 kts 35°
2026-04-26 18:26 49.95079 7.26625 2151 ft 100 kts 30°
2026-04-26 18:26 49.95704 7.27183 2403 ft 107 kts 32°
2026-04-26 18:26 49.95974 7.28093 2779 ft 102 kts 94°
2026-04-26 18:26 49.95709 7.29316 2674 ft 131 kts 109°
2026-04-26 18:27 49.95042 7.30241 2764 ft 141 kts 163°
2026-04-26 18:27 49.94046 7.30116 2776 ft 150 kts 194°
2026-04-26 18:27 49.93030 7.29512 2659 ft 158 kts 201°
2026-04-26 18:27 49.92035 7.28776 2632 ft 157 kts 206°
2026-04-26 18:28 49.91104 7.27935 2706 ft 153 kts 210°
2026-04-26 18:28 49.90522 7.26725 2800 ft 130 kts 266°
2026-04-26 18:28 49.90696 7.25402 2478 ft 118 kts 294°
2026-04-26 18:28 49.91008 7.24269 2299 ft 113 kts 299°
2026-04-26 18:29 49.91446 7.23516 2248 ft 84 kts 352°
2026-04-26 18:29 49.92021 7.23582 2033 ft 87 kts 29°
2026-04-26 18:29 49.92573 7.24108 1804 ft 108 kts 35°
2026-04-26 18:29 49.93244 7.24779 1695 ft 109 kts 33°
2026-04-26 18:30 49.93821 7.25347 1662 ft 99 kts 31°
2026-04-26 18:30 49.94452 7.25873 1920 ft 102 kts 25°
2026-04-26 18:30 49.95194 7.26264 2153 ft 121 kts
2026-04-26 18:30 49.95914 7.25484 2455 ft 142 kts 318°
2026-04-26 18:31 49.96590 7.24379 2871 ft 145 kts 318°
2026-04-26 18:31 49.97390 7.23245 2854 ft 166 kts 329°
2026-04-26 18:31 49.98331 7.22098 2851 ft 177 kts 325°
2026-04-26 18:31 49.99332 7.20926 2863 ft 183 kts 326°
2026-04-26 18:32 50.00371 7.19729 2858 ft 188 kts 326°
2026-04-26 18:32 50.01427 7.18510 2857 ft 190 kts 326°
2026-04-26 18:32 50.02491 7.17313 2876 ft 187 kts 330°
2026-04-26 18:32 50.03687 7.16542 2849 ft 188 kts 343°
2026-04-26 18:33 50.04916 7.15852 2845 ft 187 kts 348°
2026-04-26 18:33 50.06192 7.15504 2839 ft 186 kts 353°
2026-04-26 18:33 50.07372 7.15504 2842 ft 154 kts 11°
2026-04-26 18:33 50.08347 7.15740 2831 ft 132 kts 11°
2026-04-26 18:34 50.09191 7.15920 2837 ft 115 kts 11°
2026-04-26 18:34 50.09931 7.16067 2832 ft 104 kts 10°
2026-04-26 18:34 50.10634 7.16217 2844 ft 105 kts 11°
2026-04-26 18:34 50.11347 7.16358 2843 ft 100 kts 11°
2026-04-26 18:35 50.12022 7.16494 2842 ft 96 kts 10°
2026-04-26 18:35 50.12714 7.16643 2860 ft 117 kts 11°
2026-04-26 18:35 50.13618 7.17028 2876 ft 150 kts 19°
2026-04-26 18:35 50.14670 7.17552 2867 ft 156 kts 19°
2026-04-26 18:36 50.15633 7.18030 2857 ft 137 kts 19°
2026-04-26 18:36 50.16542 7.18467 2865 ft 143 kts 18°
2026-04-26 18:36 50.17569 7.18984 2864 ft 164 kts 19°
2026-04-26 18:36 50.18676 7.19545 2859 ft 171 kts 19°
2026-04-26 18:37 50.19829 7.20117 2863 ft 176 kts 18°
2026-04-26 18:37 50.21004 7.20736 2863 ft 180 kts 19°
2026-04-26 18:37 50.22192 7.21383 2862 ft 182 kts 19°
2026-04-26 18:37 50.23390 7.22037 2862 ft 182 kts 19°
2026-04-26 18:38 50.24585 7.22692 2851 ft 181 kts 19°
2026-04-26 18:38 50.25775 7.23342 2857 ft 181 kts 19°
2026-04-26 18:38 50.27012 7.23383 2848 ft 181 kts 349°
2026-04-26 18:38 50.28242 7.22958 2849 ft 181 kts 349°
2026-04-26 18:39 50.29476 7.22508 2852 ft 183 kts 348°
2026-04-26 18:39 50.30716 7.22052 2853 ft 183 kts 348°
2026-04-26 18:39 50.31958 7.21604 2854 ft 183 kts 348°
2026-04-26 18:39 50.33195 7.21155 2854 ft 183 kts 348°
2026-04-26 18:40 50.34444 7.20706 2843 ft 184 kts 348°
2026-04-26 18:40 50.35682 7.20263 2859 ft 183 kts 348°
2026-04-26 18:40 50.36922 7.19813 2864 ft 184 kts 348°
2026-04-26 18:40 50.38171 7.19365 2866 ft 185 kts 348°
2026-04-26 18:41 50.39432 7.18920 2861 ft 186 kts 348°
2026-04-26 18:41 50.40693 7.18462 2864 ft 187 kts 348°
2026-04-26 18:41 50.41954 7.18008 2992 ft 181 kts 348°
2026-04-26 18:41 50.43100 7.17587 3549 ft 157 kts 348°
2026-04-26 18:42 50.44084 7.17236 4247 ft 134 kts 347°
2026-04-26 18:42 50.44980 7.16942 4749 ft 132 kts 348°
2026-04-26 18:42 50.45884 7.16669 5191 ft 132 kts 348°
2026-04-26 18:42 50.46788 7.16410 5640 ft 132 kts 348°
2026-04-26 18:43 50.47716 7.16150 5902 ft 146 kts 348°
2026-04-26 18:43 50.48794 7.15840 5911 ft 168 kts 348°
2026-04-26 18:43 50.49989 7.15491 5913 ft 180 kts 348°
2026-04-26 18:43 50.51242 7.15124 5914 ft 186 kts 348°
2026-04-26 18:44 50.52528 7.14745 5908 ft 190 kts 348°
2026-04-26 18:44 50.53829 7.14360 5912 ft 191 kts 348°
2026-04-26 18:44 50.55121 7.13981 5906 ft 191 kts 348°
2026-04-26 18:44 50.56431 7.13595 5907 ft 192 kts 348°
2026-04-26 18:45 50.57742 7.13211 5913 ft 191 kts 348°
2026-04-26 18:45 50.59073 7.12822 5797 ft 196 kts 348°
2026-04-26 18:45 50.60466 7.12407 5356 ft 201 kts 348°
2026-04-26 18:45 50.61816 7.11999 4351 ft 204 kts 348°
2026-04-26 18:46 50.63206 7.11548 3438 ft 203 kts 348°
2026-04-26 18:46 50.64576 7.11074 2562 ft 200 kts 348°
2026-04-26 18:46 50.65880 7.10618 2411 ft 177 kts 348°
2026-04-26 18:46 50.66990 7.10204 2405 ft 152 kts 348°
2026-04-26 18:47 50.67967 7.09820 2402 ft 136 kts 348°
2026-04-26 18:47 50.68826 7.09479 2399 ft 120 kts 347°
2026-04-26 18:47 50.69610 7.09170 2405 ft 115 kts 348°
2026-04-26 18:47 50.70379 7.08865 2404 ft 114 kts 347°
2026-04-26 18:48 50.71145 7.08561 2406 ft 113 kts 347°
2026-04-26 18:48 50.72024 7.08212 2428 ft 147 kts 347°
2026-04-26 18:48 50.73095 7.07798 2431 ft 168 kts 348°
2026-04-26 18:48 50.74269 7.07398 2426 ft 173 kts 353°
2026-04-26 18:49 50.75475 7.07113 2424 ft 171 kts 352°
2026-04-26 18:49 50.76560 7.06862 2416 ft 144 kts 353°
2026-04-26 18:49 50.77409 7.07088 2467 ft 115 kts 38°
2026-04-26 18:49 50.78042 7.08028 1921 ft 137 kts 40°
2026-04-26 18:50 50.78745 7.08919 1717 ft 130 kts 31°
2026-04-26 18:50 50.79666 7.09627 1655 ft 158 kts 25°
2026-04-26 18:50 50.80697 7.10396 1682 ft 169 kts 27°
2026-04-26 18:50 50.81667 7.11253 1719 ft 143 kts 31°
2026-04-26 18:51 50.82457 7.12000 1564 ft 129 kts 30°
2026-04-26 18:51 50.83235 7.12517 1552 ft 108 kts
2026-04-26 18:51 50.83868 7.11916 1465 ft 115 kts 301°
2026-04-26 18:51 50.83909 7.10666 1489 ft 120 kts 254°
2026-04-26 18:52 50.83393 7.09655 1488 ft 122 kts 208°
2026-04-26 18:52 50.82586 7.09527 1531 ft 115 kts 153°
2026-04-26 18:52 50.82135 7.10502 1495 ft 114 kts 94°
2026-04-26 18:52 50.82421 7.11615 1383 ft 116 kts 51°
2026-04-26 18:53 50.83007 7.12387 1379 ft 110 kts 33°
2026-04-26 18:53 50.83550 7.13179 1361 ft 105 kts 47°
2026-04-26 18:53 50.83974 7.14081 1194 ft 103 kts 54°
2026-04-26 18:53 50.84351 7.14955 1140 ft 89 kts 53°
2026-04-26 18:54 50.84777 7.15421 980 ft 68 kts 329°
2026-04-26 18:54 50.85147 7.14863 659 ft 72 kts 321°
2026-04-26 18:54 50.85519 7.14322 438 ft 75 kts 321°
2026-04-26 18:54 50.85919 7.13763 281 ft 73 kts 322°
2026-04-26 18:55 50.86250 7.13313 243 ft 55 kts 317°
2026-04-26 18:55 50.86627 7.12735 273 ft 92 kts 316°
2026-04-26 18:55 50.87118 7.12015 513 ft 98 kts 324°
2026-04-26 18:55 50.87597 7.11258 797 ft 99 kts 308°
2026-04-26 18:56 50.87465 7.10273 1034 ft 111 kts 226°
2026-04-26 18:56 50.86790 7.09579 1139 ft 124 kts 178°
2026-04-26 18:56 50.86054 7.10274 1182 ft 132 kts 136°
2026-04-26 18:56 50.85295 7.11208 1184 ft 139 kts 141°
2026-04-26 18:57 50.84540 7.12134 1079 ft 128 kts 140°
2026-04-26 18:57 50.84322 7.12413 1030 ft 120 kts 137°
2026-04-26 18:57 50.83963 7.13733 858 ft 97 kts 63°
2026-04-26 18:57 50.84472 7.14692 726 ft 96 kts 39°
2026-04-26 18:58 50.84834 7.15028 627 ft 87 kts 352°
2026-04-26 18:58 50.85366 7.14536 412 ft 92 kts 320°
2026-04-26 18:58 50.85812 7.13899 295 ft 80 kts 322°
2026-04-26 18:58 50.86197 7.13368 241 ft 66 kts 328°
2026-04-26 18:59 50.86574 7.12815 246 ft 92 kts 314°
2026-04-26 18:59 50.87106 7.12072 421 ft 102 kts 323°
2026-04-26 18:59 50.87640 7.11326 653 ft 106 kts 301°
2026-04-26 18:59 50.87411 7.10251 844 ft 119 kts 230°
2026-04-26 19:00 50.86720 7.09549 1006 ft 122 kts 165°
2026-04-26 19:00 50.85931 7.10216 1002 ft 135 kts 145°
2026-04-26 19:00 50.85142 7.10736 1382 ft 116 kts 185°
2026-04-26 19:00 50.84554 7.09765 1237 ft 135 kts 264°
2026-04-26 19:01 50.84842 7.08407 1301 ft 138 kts 309°
2026-04-26 19:01 50.85520 7.07357 1390 ft 130 kts 334°
2026-04-26 19:01 50.86406 7.06857 1319 ft 140 kts 347°
2026-04-26 19:01 50.87359 7.06446 1335 ft 139 kts 344°
2026-04-26 19:02 50.88253 7.05930 1385 ft 135 kts 319°
2026-04-26 19:02 50.88710 7.04552 1246 ft 150 kts 293°
2026-04-26 19:02 50.89045 7.03025 1219 ft 148 kts 290°
2026-04-26 19:02 50.89260 7.01972 1171 ft 149 kts 290°
2026-04-26 19:03 50.89733 6.99976 1213 ft 141 kts 298°
2026-04-26 19:03 50.90217 6.98691 1378 ft 134 kts 313°
2026-04-26 19:03 50.90929 6.97750 1437 ft 136 kts 332°
2026-04-26 19:03 50.91772 6.97024 1440 ft 140 kts 335°
2026-04-26 19:04 50.92644 6.96286 1385 ft 144 kts 333°
2026-04-26 19:04 50.93488 6.95470 1392 ft 140 kts 329°
2026-04-26 19:04 50.94260 6.94560 1456 ft 136 kts 321°
2026-04-26 19:04 50.94942 6.93455 1315 ft 146 kts 314°
2026-04-26 19:05 50.96460 6.91395 1229 ft 135 kts 326°
2026-04-26 19:05 50.97212 6.90482 1282 ft 133 kts 324°
2026-04-26 19:05 50.97917 6.89514 1321 ft 135 kts 321°
2026-04-26 19:06 50.98744 6.88890 1270 ft 137 kts 354°
2026-04-26 19:06 50.99664 6.88878 1341 ft 136 kts 359°
2026-04-26 19:06 51.00570 6.88465 1354 ft 138 kts 338°
2026-04-26 19:06 51.01382 6.87730 1513 ft 132 kts 330°
2026-04-26 19:07 51.02114 6.86872 1644 ft 133 kts 324°
2026-04-26 19:07 51.02904 6.86050 1640 ft 139 kts 332°
2026-04-26 19:07 51.03747 6.85268 1641 ft 142 kts 332°
2026-04-26 19:07 51.04601 6.84477 1642 ft 142 kts 332°
2026-04-26 19:08 51.05456 6.83679 1641 ft 143 kts 332°
2026-04-26 19:08 51.06318 6.82878 1643 ft 142 kts 332°
2026-04-26 19:08 51.07047 6.82185 1624 ft 106 kts 332°
2026-04-26 19:08 51.07678 6.81573 1630 ft 107 kts 332°
2026-04-26 19:09 51.08311 6.80960 1636 ft 106 kts 332°
2026-04-26 19:09 51.08955 6.80336 1640 ft 117 kts 332°
2026-04-26 19:09 51.09730 6.79718 1650 ft 131 kts 341°
2026-04-26 19:09 51.10640 6.79358 1656 ft 138 kts 353°
2026-04-26 19:10 51.11482 6.79148 1633 ft 107 kts 353°
2026-04-26 19:10 51.12147 6.78968 1627 ft 90 kts 353°
2026-04-26 19:10 51.12731 6.78796 1628 ft 82 kts 353°
2026-04-26 19:10 51.13287 6.78640 1628 ft 81 kts 353°
2026-04-26 19:11 51.13849 6.78488 1631 ft 82 kts 353°
2026-04-26 19:11 51.14399 6.78318 1626 ft 80 kts 354°
2026-04-26 19:11 51.15001 6.78122 1654 ft 97 kts 353°
2026-04-26 19:11 51.15690 6.77898 1649 ft 100 kts 349°
2026-04-26 19:12 51.16293 6.77643 1636 ft 83 kts 355°
2026-04-26 19:12 51.17008 6.77544 1654 ft 124 kts 354°
2026-04-26 19:12 51.17961 6.77224 1659 ft 153 kts 353°
2026-04-26 19:12 51.19074 6.76942 1656 ft 168 kts 356°
2026-04-26 19:13 51.20248 6.77140 1651 ft 173 kts 16°
2026-04-26 19:13 51.21409 6.77716 1650 ft 177 kts 20°
2026-04-26 19:13 51.22583 6.78344 1648 ft 179 kts 20°
2026-04-26 19:13 51.23744 6.78979 1648 ft 179 kts 20°
2026-04-26 19:14 51.24893 6.79593 1645 ft 163 kts 17°
2026-04-26 19:14 51.25634 6.78896 1831 ft 135 kts 284°
2026-04-26 19:14 51.25385 6.77431 1555 ft 137 kts 244°
2026-04-26 19:14 51.25042 6.76618 1440 ft 133 kts 233°
2026-04-26 19:15 51.24229 6.75174 1107 ft 134 kts 228°
2026-04-26 19:15 51.23596 6.74087 1004 ft 122 kts 226°
2026-04-26 19:15 51.23055 6.73159 1066 ft 112 kts 240°
2026-04-26 19:15 51.23009 6.71942 1148 ft 117 kts 300°
2026-04-26 19:16 51.23669 6.71384 1209 ft 115 kts 12°
2026-04-26 19:16 51.24209 6.72186 1412 ft 109 kts 71°
2026-04-26 19:16 51.24106 6.73450 1350 ft 130 kts 103°
2026-04-26 19:16 51.23482 6.74330 1637 ft 127 kts 166°
2026-04-26 19:17 51.22638 6.74030 1810 ft 132 kts 214°
2026-04-26 19:17 51.22249 6.72748 1905 ft 133 kts 276°
2026-04-26 19:17 51.22736 6.71601 1996 ft 127 kts 336°
2026-04-26 19:17 51.23560 6.71648 2021 ft 127 kts 38°
2026-04-26 19:18 51.23787 6.73020 1853 ft 144 kts 107°
2026-04-26 19:18 51.23039 6.74090 1762 ft 157 kts 161°
2026-04-26 19:18 51.22026 6.73769 1737 ft 151 kts 218°
2026-04-26 19:18 51.21670 6.72348 1763 ft 137 kts 283°
2026-04-26 19:19 51.22230 6.71240 1705 ft 131 kts 341°
2026-04-26 19:19 51.23107 6.71258 1615 ft 127 kts 25°
2026-04-26 19:19 51.23813 6.72038 1393 ft 125 kts 11°
2026-04-26 19:19 51.24534 6.71399 1246 ft 123 kts 307°
2026-04-26 19:20 51.25033 6.70383 1133 ft 114 kts 317°
2026-04-26 19:20 51.25404 6.69825 1089 ft 101 kts 338°
2026-04-26 19:20 51.25966 6.70543 779 ft 102 kts 69°
2026-04-26 19:20 51.26299 6.71549 600 ft 101 kts 56°
2026-04-26 19:21 51.26691 6.72490 527 ft 102 kts 56°
2026-04-26 19:21 51.27126 6.73443 450 ft 111 kts 52°
2026-04-26 19:21 51.27596 6.74405 348 ft 110 kts 50°
2026-04-26 19:21 51.28035 6.75320 176 ft 96 kts 55°
2026-04-26 19:22 51.28394 6.76098 117 ft 77 kts 52°
2026-04-26 19:22 51.28740 6.76815 150 ft 96 kts 53°
2026-04-26 19:22 51.29214 6.77806 291 ft 127 kts 50°
2026-04-26 19:22 51.29796 6.78883 692 ft 130 kts 45°
2026-04-26 19:23 51.30509 6.79770 1156 ft 127 kts 19°
2026-04-26 19:23 51.31345 6.79356 1517 ft 142 kts 319°
2026-04-26 19:23 51.31863 6.77993 1892 ft 151 kts 297°
2026-04-26 19:23 51.32292 6.76431 1801 ft 154 kts 278°
2026-04-26 19:24 51.31828 6.75122 1812 ft 151 kts 228°
2026-04-26 19:24 51.31100 6.73736 1731 ft 172 kts 231°
2026-04-26 19:24 51.29542 6.70766 1561 ft 159 kts 226°
2026-04-26 19:25 51.28721 6.69717 1453 ft 144 kts 204°
2026-04-26 19:25 51.28110 6.69645 1478 ft 123 kts 158°
2026-04-26 19:25 51.27225 6.70716 1177 ft 117 kts 127°
2026-04-26 19:25 51.26758 6.71727 996 ft 112 kts 121°
2026-04-26 19:26 51.26706 6.72682 774 ft 78 kts 54°
2026-04-26 19:26 51.27091 6.73381 554 ft 85 kts 49°
2026-04-26 19:26 51.27464 6.74164 388 ft 94 kts 53°
2026-04-26 19:26 51.27829 6.74883 196 ft 76 kts 52°
2026-04-26 19:27 51.28130 6.75542 129 ft 67 kts 52°
2026-04-26 19:27 51.28373 6.76053 118 ft 54 kts 52°
2026-04-26 19:27 51.28710 6.76632 228 ft 82 kts 34°
2026-04-26 19:27 51.29080 6.77323 490 ft 94 kts 62°
2026-04-26 19:28 51.29417 6.78366 702 ft 118 kts 60°
2026-04-26 19:28 51.29711 6.79596 1189 ft 118 kts 87°
2026-04-26 19:28 51.29251 6.80714 1500 ft 140 kts 149°
2026-04-26 19:28 51.28168 6.80728 1390 ft 179 kts 199°
2026-04-26 19:29 51.26960 6.80092 1404 ft 186 kts 176°
2026-04-26 19:29 51.25919 6.81103 1566 ft 175 kts 131°
2026-04-26 19:29 51.25155 6.82557 1856 ft 167 kts 125°
2026-04-26 19:29 51.24411 6.83988 2082 ft 169 kts 129°
2026-04-26 19:30 51.23639 6.85466 2163 ft 172 kts 117°
2026-04-26 19:30 51.23484 6.87295 2201 ft 174 kts 73°
2026-04-26 19:30 51.24154 6.88931 2231 ft 177 kts 53°
2026-04-26 19:30 51.24599 6.90008 2211 ft 169 kts 57°
2026-04-26 19:31 51.25364 6.91886 2205 ft 135 kts 55°
2026-04-26 19:31 51.25861 6.93064 2203 ft 122 kts 56°
2026-04-26 19:31 51.26315 6.94149 2204 ft 112 kts 57°
2026-04-26 19:31 51.26616 6.95241 2205 ft 104 kts 67°
2026-04-26 19:32 51.26890 6.96318 2206 ft 105 kts 68°
2026-04-26 19:32 51.27167 6.97419 2212 ft 109 kts 67°
2026-04-26 19:32 51.27452 6.98572 2209 ft 111 kts 67°
2026-04-26 19:32 51.27731 6.99715 2217 ft 110 kts 65°
2026-04-26 19:33 51.28021 7.00833 2218 ft 109 kts 67°
2026-04-26 19:33 51.28299 7.01965 2207 ft 109 kts 66°
2026-04-26 19:33 51.28577 7.03071 2207 ft 107 kts 68°
2026-04-26 19:33 51.28849 7.04184 2203 ft 107 kts 67°
2026-04-26 19:34 51.29119 7.05289 2200 ft 106 kts 67°
2026-04-26 19:34 51.29383 7.06367 2204 ft 103 kts 66°
2026-04-26 19:34 51.29641 7.07415 2206 ft 101 kts 68°
2026-04-26 19:34 51.29913 7.08498 2206 ft 106 kts 66°
2026-04-26 19:35 51.30181 7.09585 2203 ft 104 kts 67°
2026-04-26 19:35 51.30443 7.10643 2210 ft 104 kts 66°
2026-04-26 19:35 51.30722 7.11729 2212 ft 108 kts 67°
2026-04-26 19:35 51.31014 7.12890 2027 ft 120 kts 66°
2026-04-26 19:36 51.31326 7.14160 1915 ft 120 kts 67°
2026-04-26 19:36 51.31433 7.14572 1916 ft 118 kts 66°
2026-04-26 19:36 51.31930 7.16520 1914 ft 111 kts 66°
2026-04-26 19:36 51.32211 7.17650 1900 ft 107 kts 67°
2026-04-26 19:37 51.32484 7.18738 1906 ft 106 kts 67°
2026-04-26 19:37 51.32764 7.19833 1899 ft 104 kts 68°
2026-04-26 19:37 51.33031 7.20881 1893 ft 102 kts 66°
2026-04-26 19:37 51.33290 7.21935 1895 ft 102 kts 67°
2026-04-26 19:38 51.33555 7.22986 1901 ft 100 kts 66°
2026-04-26 19:38 51.33811 7.24018 1908 ft 101 kts 68°
2026-04-26 19:38 51.34071 7.25072 1882 ft 102 kts 67°
2026-04-26 19:38 51.34328 7.26102 1878 ft 98 kts 66°
2026-04-26 19:39 51.34582 7.27140 1881 ft 101 kts 66°
2026-04-26 19:39 51.34839 7.28189 1876 ft 99 kts 67°
2026-04-26 19:39 51.35124 7.29278 1896 ft 119 kts 67°
2026-04-26 19:39 51.35472 7.30630 1897 ft 142 kts 66°
2026-04-26 19:40 51.35862 7.32145 1896 ft 152 kts 67°
2026-04-26 19:40 51.36284 7.33723 1899 ft 156 kts 66°
2026-04-26 19:40 51.36716 7.35353 1889 ft 162 kts 69°
2026-04-26 19:40 51.37140 7.37030 1892 ft 164 kts 67°
2026-04-26 19:41 51.37583 7.38708 1888 ft 163 kts 68°
2026-04-26 19:41 51.38027 7.40380 1885 ft 163 kts 67°
2026-04-26 19:41 51.38476 7.42057 1872 ft 165 kts 67°
2026-04-26 19:41 51.38618 7.42605 1878 ft 164 kts 67°
2026-04-26 19:42 51.39347 7.45408 1882 ft 162 kts 67°
2026-04-26 19:42 51.39782 7.47075 1882 ft 163 kts 67°
2026-04-26 19:42 51.40215 7.48758 1895 ft 164 kts 68°
2026-04-26 19:42 51.40666 7.50438 1904 ft 163 kts 66°
2026-04-26 19:43 51.41098 7.52131 1899 ft 164 kts 67°
2026-04-26 19:43 51.41540 7.53790 1885 ft 164 kts 67°
2026-04-26 19:43 51.41978 7.55481 1893 ft 162 kts 68°
2026-04-26 19:43 51.42408 7.57162 1890 ft 163 kts 66°
2026-04-26 19:44 51.42905 7.58775 1891 ft 164 kts 63°
2026-04-26 19:44 51.43517 7.60313 1896 ft 165 kts 49°
2026-04-26 19:44 51.44264 7.61696 1886 ft 163 kts 50°
2026-04-26 19:44 51.44949 7.63146 1893 ft 165 kts 57°
2026-04-26 19:45 51.45583 7.64693 1889 ft 166 kts 57°
2026-04-26 19:45 51.46221 7.66235 1896 ft 167 kts 57°
2026-04-26 19:45 51.46846 7.67780 1885 ft 163 kts 57°
2026-04-26 19:45 51.47360 7.69383 1880 ft 161 kts 66°
2026-04-26 19:46 51.47658 7.70444 1873 ft 147 kts 65°
2026-04-26 19:46 51.48096 7.71757 1877 ft 124 kts 31°
2026-04-26 19:46 51.48838 7.71324 1707 ft 127 kts 311°
2026-04-26 19:46 51.49304 7.70192 1636 ft 120 kts 304°
2026-04-26 19:47 51.49819 7.69214 1594 ft 114 kts 327°
2026-04-26 19:47 51.50268 7.68724 1555 ft 117 kts 328°
2026-04-26 19:47 51.51138 7.67670 1430 ft 119 kts 326°
2026-04-26 19:47 51.51826 7.66947 1361 ft 114 kts 332°
2026-04-26 19:48 51.52488 7.66329 1244 ft 109 kts 330°
2026-04-26 19:48 51.53032 7.65517 1094 ft 106 kts 287°
2026-04-26 19:48 51.52959 7.64429 945 ft 90 kts 246°
2026-04-26 19:48 51.52672 7.63594 681 ft 82 kts 238°
2026-04-26 19:49 51.52399 7.62837 470 ft 74 kts 239°
2026-04-26 19:49 51.52155 7.62152 410 ft 67 kts 239°
2026-04-26 19:49 51.51942 7.61517 409 ft 76 kts 240°
2026-04-26 19:49 51.51647 7.60667 550 ft 90 kts 242°
2026-04-26 19:50 51.51365 7.59804 831 ft 88 kts 242°
2026-04-26 19:50 51.51024 7.58819 970 ft 116 kts 239°
2026-04-26 19:50 51.50314 7.58720 1360 ft 121 kts 156°
2026-04-26 19:50 51.49763 7.59705 1653 ft 129 kts 86°
2026-04-26 19:51 51.50060 7.61197 1688 ft 155 kts 69°
2026-04-26 19:51 51.50428 7.62771 1710 ft 139 kts 69°
2026-04-26 19:51 51.50771 7.64120 1668 ft 125 kts 66°
2026-04-26 19:51 51.51140 7.65414 1489 ft 127 kts 63°
2026-04-26 19:52 51.51715 7.66434 1443 ft 120 kts 24°
2026-04-26 19:52 51.52536 7.66499 1182 ft 126 kts 349°
2026-04-26 19:52 51.53180 7.65738 1085 ft 115 kts 285°
2026-04-26 19:52 51.53016 7.64587 797 ft 99 kts 238°
2026-04-26 19:53 51.52704 7.63709 560 ft 83 kts 242°
2026-04-26 19:53 51.52435 7.62940 435 ft 75 kts 241°
2026-04-26 19:53 51.52200 7.62277 406 ft 62 kts 239°
2026-04-26 19:53 51.51948 7.61553 423 ft 95 kts 242°
2026-04-26 19:54 51.51663 7.60702 788 ft 92 kts 244°
2026-04-26 19:54 51.51351 7.59717 1052 ft 104 kts 243°
2026-04-26 19:54 51.50763 7.59195 1424 ft 103 kts 171°
2026-04-26 19:54 51.50024 7.59522 1657 ft 113 kts 153°
2026-04-26 19:55 51.49786 7.60512 1982 ft 110 kts 52°
2026-04-26 19:55 51.50261 7.61727 1995 ft 143 kts 62°
2026-04-26 19:55 51.50746 7.63188 2137 ft 154 kts 65°
2026-04-26 19:55 51.51195 7.64836 2091 ft 167 kts 66°
2026-04-26 19:56 51.51178 7.66524 2486 ft 156 kts 122°
2026-04-26 19:56 51.50281 7.67730 2339 ft 182 kts 144°
2026-04-26 19:56 51.49231 7.68846 2386 ft 181 kts 141°
2026-04-26 19:56 51.48232 7.70078 2395 ft 181 kts 140°
2026-04-26 19:57 51.47230 7.71339 2388 ft 184 kts 140°
2026-04-26 19:57 51.46230 7.72642 2400 ft 185 kts 138°
2026-04-26 19:57 51.45338 7.74093 2383 ft 182 kts 117°
2026-04-26 19:57 51.45153 7.76066 2377 ft 181 kts 84°
2026-04-26 19:58 51.45340 7.78057 2390 ft 180 kts 78°
2026-04-26 19:58 51.45774 7.79952 2393 ft 182 kts 66°
2026-04-26 19:58 51.46280 7.81813 2396 ft 182 kts 67°
2026-04-26 19:58 51.46794 7.83663 2388 ft 180 kts 66°
2026-04-26 19:59 51.47307 7.85466 2383 ft 180 kts 67°
2026-04-26 19:59 51.47807 7.87317 2382 ft 182 kts 66°
2026-04-26 19:59 51.48325 7.89155 2386 ft 180 kts 66°
2026-04-26 19:59 51.48833 7.91002 2387 ft 182 kts 66°
2026-04-26 20:00 51.49349 7.92847 2382 ft 180 kts 66°
2026-04-26 20:00 51.49860 7.94682 2396 ft 182 kts 66°
2026-04-26 20:00 51.50378 7.96523 2393 ft 181 kts 67°
2026-04-26 20:00 51.50894 7.98354 2394 ft 178 kts 65°
2026-04-26 20:01 51.51381 8.00191 2392 ft 179 kts 69°
2026-04-26 20:01 51.51888 8.02020 2389 ft 180 kts 65°
2026-04-26 20:01 51.52399 8.03848 2387 ft 179 kts 66°
2026-04-26 20:01 51.52898 8.05680 2398 ft 180 kts 68°
2026-04-26 20:02 51.53408 8.07513 2394 ft 181 kts 65°
2026-04-26 20:02 51.53926 8.09334 2388 ft 179 kts 67°
2026-04-26 20:02 51.54433 8.11181 2383 ft 182 kts 66°
2026-04-26 20:02 51.54778 8.12407 2385 ft 182 kts 66°
2026-04-26 20:03 51.55474 8.14904 2397 ft 184 kts 66°
2026-04-26 20:03 51.56001 8.16793 2392 ft 185 kts 66°
2026-04-26 20:03 51.56524 8.18674 2395 ft 184 kts 66°
2026-04-26 20:03 51.57049 8.20546 2384 ft 183 kts 66°
2026-04-26 20:04 51.57568 8.22417 2398 ft 184 kts 66°
2026-04-26 20:04 51.58090 8.24305 2390 ft 184 kts 66°
2026-04-26 20:04 51.58612 8.26180 2387 ft 184 kts 67°
2026-04-26 20:04 51.59131 8.28066 2395 ft 185 kts 66°
2026-04-26 20:05 51.59673 8.29921 2396 ft 182 kts 66°
2026-04-26 20:05 51.60169 8.31792 2400 ft 181 kts 65°
2026-04-26 20:05 51.60693 8.33657 2392 ft 185 kts 67°
2026-04-26 20:05 51.61210 8.35554 2384 ft 185 kts 66°
2026-04-26 20:06 51.61737 8.37422 2389 ft 183 kts 67°
2026-04-26 20:06 51.62256 8.39306 2383 ft 185 kts 66°
2026-04-26 20:06 51.62787 8.41189 2392 ft 186 kts 66°
2026-04-26 20:06 51.63308 8.43100 2388 ft 186 kts 67°
2026-04-26 20:07 51.63825 8.44989 2399 ft 184 kts 66°
2026-04-26 20:07 51.64341 8.46858 2382 ft 185 kts 65°
2026-04-26 20:07 51.64876 8.48724 2388 ft 185 kts 67°
2026-04-26 20:07 51.65375 8.50640 2379 ft 185 kts 68°
2026-04-26 20:08 51.65909 8.52508 2392 ft 183 kts 66°
2026-04-26 20:08 51.66422 8.54392 2383 ft 183 kts 66°
2026-04-26 20:08 51.67101 8.55853 2506 ft 148 kts 358°
2026-04-26 20:08 51.66983 8.54902 2320 ft 130 kts 186°
2026-04-26 20:09 51.66243 8.55357 2202 ft 117 kts 128°
2026-04-26 20:09 51.66012 8.56461 2011 ft 113 kts 92°
2026-04-26 20:09 51.66170 8.57758 1707 ft 119 kts 71°
2026-04-26 20:09 51.66148 8.58936 1774 ft 104 kts 103°
2026-04-26 20:10 51.65884 8.60280 1735 ft 143 kts 109°
2026-04-26 20:10 51.65533 8.61792 1812 ft 133 kts 111°
2026-04-26 20:10 51.65230 8.63162 1604 ft 129 kts 105°
2026-04-26 20:10 51.64981 8.64479 1535 ft 126 kts 110°
2026-04-26 20:11 51.64564 8.65809 1601 ft 126 kts 123°
2026-04-26 20:11 51.64010 8.66792 1522 ft 115 kts 140°
2026-04-26 20:11 51.63320 8.66681 1370 ft 113 kts 233°
2026-04-26 20:12 51.62597 8.64547 1066 ft 86 kts 237°
2026-04-26 20:12 51.62273 8.63771 807 ft 86 kts 236°
2026-04-26 20:12 51.61934 8.62929 723 ft 90 kts 236°
2026-04-26 20:12 51.61621 8.62154 696 ft 81 kts 237°
2026-04-26 20:13 51.61264 8.61261 864 ft 99 kts 238°
2026-04-26 20:13 51.60916 8.60349 1230 ft 94 kts 242°
2026-04-26 20:13 51.60846 8.59399 1629 ft 87 kts 288°
2026-04-26 20:13 51.61173 8.58574 2015 ft 81 kts 315°
2026-04-26 20:14 51.61628 8.57888 1834 ft 102 kts 328°
2026-04-26 20:14 51.62240 8.57881 1623 ft 91 kts 30°
2026-04-26 20:14 51.62665 8.58678 1358 ft 92 kts 57°
2026-04-26 20:14 51.63018 8.59623 1300 ft 102 kts 60°
2026-04-26 20:15 51.63364 8.60638 1265 ft 106 kts 63°
2026-04-26 20:15 51.63680 8.61733 1261 ft 107 kts 66°
2026-04-26 20:15 51.63908 8.62775 1188 ft 95 kts 94°
2026-04-26 20:15 51.63546 8.63571 1112 ft 87 kts 141°
2026-04-26 20:16 51.63071 8.64165 974 ft 86 kts 145°
2026-04-26 20:16 51.62562 8.64429 948 ft 77 kts 206°
2026-04-26 20:16 51.62232 8.63666 786 ft 83 kts 238°
2026-04-26 20:16 51.61918 8.62882 702 ft 82 kts 236°
2026-04-26 20:17 51.61621 8.62156 696 ft 77 kts 236°
2026-04-26 20:17 51.61269 8.61380 942 ft 87 kts 235°
2026-04-26 20:17 51.60959 8.60480 1224 ft 91 kts 237°
2026-04-26 20:17 51.60707 8.59896 1393 ft 100 kts 234°
2026-04-26 20:18 51.60246 8.58640 1651 ft 96 kts 248°
2026-04-26 20:18 51.60327 8.57630 1762 ft 96 kts 309°
2026-04-26 20:18 51.60803 8.56895 1573 ft 95 kts 323°
2026-04-26 20:18 51.61461 8.56769 1492 ft 121 kts 26°
2026-04-26 20:19 51.62075 8.57882 1500 ft 151 kts 71°
2026-04-26 20:19 51.62506 8.59493 1636 ft 161 kts 65°
2026-04-26 20:19 51.63108 8.60963 1970 ft 157 kts 51°
2026-04-26 20:19 51.63861 8.62322 2042 ft 169 kts 51°
2026-04-26 20:20 51.64457 8.63816 1908 ft 148 kts 68°
2026-04-26 20:20 51.64321 8.65203 1994 ft 119 kts 120°
2026-04-26 20:20 51.63903 8.66036 1978 ft 92 kts 135°
2026-04-26 20:20 51.63361 8.66041 1670 ft 89 kts 214°
2026-04-26 20:21 51.62939 8.65321 1358 ft 83 kts 230°
2026-04-26 20:21 51.62612 8.64580 1079 ft 79 kts 237°
2026-04-26 20:21 51.62309 8.63848 870 ft 77 kts 238°
2026-04-26 20:21 51.62011 8.63132 721 ft 75 kts 237°
2026-04-26 20:22 51.61743 8.62462 695 ft 63 kts 238°
2026-04-26 20:22 51.61525 8.61917 696 ft 69 kts 236°
2026-04-26 20:22 51.61202 8.61122 833 ft 94 kts 237°
2026-04-26 20:22 51.60826 8.60182 1059 ft 105 kts 239°
2026-04-26 20:23 51.60587 8.59097 1381 ft 102 kts 272°
2026-04-26 20:23 51.61034 8.58357 1647 ft 103 kts 351°
2026-04-26 20:23 51.61898 8.58124 1716 ft 134 kts 356°
2026-04-26 20:23 51.62959 8.58019 1547 ft 170 kts 347°
2026-04-26 20:24 51.63947 8.57040 1797 ft 170 kts 314°
2026-04-26 20:24 51.64653 8.55502 2098 ft 169 kts 303°
2026-04-26 20:24 51.65261 8.53878 2352 ft 174 kts 306°
2026-04-26 20:24 51.66225 8.52780 2574 ft 168 kts 351°
2026-04-26 20:25 51.67140 8.53737 2375 ft 181 kts 66°
2026-04-26 20:25 51.67396 8.54923 2783 ft 163 kts 73°
2026-04-26 20:25 51.67816 8.57376 2813 ft 177 kts 70°
2026-04-26 20:25 51.68349 8.59219 2804 ft 184 kts 63°
2026-04-26 20:26 51.68969 8.61026 2805 ft 185 kts 62°
2026-04-26 20:26 51.69592 8.62816 2823 ft 185 kts 61°
2026-04-26 20:26 51.70209 8.64581 3084 ft 172 kts 61°
2026-04-26 20:26 51.70751 8.66139 3732 ft 148 kts 62°
2026-04-26 20:27 51.71214 8.67504 4349 ft 135 kts 60°
2026-04-26 20:27 51.71657 8.68878 4765 ft 140 kts 61°
2026-04-26 20:27 51.72101 8.70291 5247 ft 142 kts 61°
2026-04-26 20:27 51.72534 8.71729 5725 ft 142 kts 61°
2026-04-26 20:28 51.72958 8.73163 6197 ft 142 kts 61°
2026-04-26 20:28 51.73371 8.74622 6656 ft 143 kts 61°
2026-04-26 20:28 51.73773 8.76099 7109 ft 145 kts 61°
2026-04-26 20:28 51.74265 8.77487 7520 ft 140 kts 38°
2026-04-26 20:29 51.75025 8.78462 7966 ft 140 kts 34°
2026-04-26 20:29 51.75782 8.79446 8425 ft 140 kts 33°
2026-04-26 20:29 51.76543 8.80431 8874 ft 140 kts 33°
2026-04-26 20:29 51.77305 8.81423 9326 ft 141 kts 33°
2026-04-26 20:30 51.78068 8.82421 9768 ft 142 kts 33°
2026-04-26 20:30 51.78885 8.83486 9893 ft 163 kts 33°
2026-04-26 20:30 51.79826 8.84683 9896 ft 180 kts 33°
2026-04-26 20:30 51.80836 8.85958 9899 ft 189 kts 33°
2026-04-26 20:31 51.81889 8.87281 9896 ft 194 kts 33°
2026-04-26 20:31 51.82971 8.88634 9897 ft 198 kts 33°
2026-04-26 20:31 51.84063 8.90002 9895 ft 199 kts 34°
2026-04-26 20:31 51.85160 8.91364 9892 ft 199 kts 33°
2026-04-26 20:32 51.86258 8.92729 9892 ft 199 kts 33°
2026-04-26 20:32 51.87358 8.94098 9894 ft 200 kts 33°
2026-04-26 20:32 51.88460 8.95472 9898 ft 200 kts 33°
2026-04-26 20:32 51.89567 8.96854 9894 ft 201 kts 33°
2026-04-26 20:33 51.90674 8.98234 9890 ft 201 kts 33°
2026-04-26 20:33 51.91782 8.99615 9892 ft 201 kts 33°
2026-04-26 20:33 51.92515 9.00529 9891 ft 201 kts 33°
2026-04-26 20:33 51.93624 9.01910 9891 ft 201 kts 33°
2026-04-26 20:34 51.94733 9.03294 9894 ft 201 kts 33°
2026-04-26 20:34 51.95840 9.04680 9893 ft 202 kts 34°
2026-04-26 20:34 51.96949 9.06070 9891 ft 201 kts 33°
2026-04-26 20:34 51.98057 9.07458 9892 ft 202 kts 33°
2026-04-26 20:35 51.99166 9.08846 9891 ft 201 kts 33°
2026-04-26 20:35 52.00275 9.10235 9893 ft 201 kts 33°
2026-04-26 20:35 52.01382 9.11625 9889 ft 201 kts 34°
2026-04-26 20:35 52.02491 9.13015 9767 ft 205 kts 33°
2026-04-26 20:36 52.03683 9.14494 9056 ft 225 kts 34°
2026-04-26 20:36 52.04917 9.16015 7843 ft 225 kts 34°
2026-04-26 20:36 52.06204 9.17456 6777 ft 223 kts 28°
2026-04-26 20:36 52.07481 9.18665 6490 ft 203 kts 27°
2026-04-26 20:37 52.08696 9.19788 6483 ft 199 kts 27°
2026-04-26 20:37 52.09890 9.20894 6480 ft 196 kts 27°
2026-04-26 20:37 52.11088 9.22003 6256 ft 204 kts 27°
2026-04-26 20:37 52.12390 9.23186 5537 ft 223 kts 27°
2026-04-26 20:38 52.13762 9.24390 5067 ft 223 kts 27°
2026-04-26 20:38 52.15129 9.25567 4607 ft 222 kts 27°
2026-04-26 20:38 52.16464 9.26696 4498 ft 209 kts 27°
2026-04-26 20:38 52.17720 9.27758 4493 ft 200 kts 26°
2026-04-26 20:39 52.18939 9.28782 4486 ft 195 kts 27°
2026-04-26 20:39 52.20132 9.29794 4476 ft 192 kts 27°
2026-04-26 20:39 52.21313 9.30796 4479 ft 191 kts 26°
2026-04-26 20:39 52.22473 9.31777 4483 ft 190 kts 27°
2026-04-26 20:40 52.23646 9.32770 4485 ft 190 kts 27°
2026-04-26 20:40 52.24796 9.33745 4472 ft 174 kts 27°
2026-04-26 20:40 52.25780 9.34585 4481 ft 147 kts 26°
2026-04-26 20:40 52.26620 9.35306 4471 ft 127 kts 26°
2026-04-26 20:41 52.27343 9.35930 4472 ft 109 kts 26°
2026-04-26 20:41 52.27967 9.36473 4476 ft 99 kts 26°
2026-04-26 20:41 52.28614 9.37034 4488 ft 111 kts 27°
2026-04-26 20:41 52.29322 9.37649 4496 ft 118 kts 27°
2026-04-26 20:42 52.30057 9.38286 4491 ft 119 kts 27°
2026-04-26 20:42 52.30788 9.38916 4509 ft 125 kts 27°
2026-04-26 20:42 52.31590 9.39608 4502 ft 134 kts 26°
2026-04-26 20:42 52.32437 9.40337 4500 ft 131 kts 27°
2026-04-26 20:43 52.33307 9.41081 4289 ft 154 kts 27°
2026-04-26 20:43 52.34283 9.41908 3682 ft 167 kts 27°
2026-04-26 20:43 52.35342 9.42781 2970 ft 175 kts 27°
2026-04-26 20:43 52.36461 9.43693 2399 ft 173 kts 27°
2026-04-26 20:44 52.37516 9.44691 2401 ft 178 kts 32°
2026-04-26 20:44 52.38580 9.45794 2396 ft 183 kts 38°
2026-04-26 20:44 52.39485 9.47301 2400 ft 188 kts 47°
2026-04-26 20:44 52.40346 9.48854 2397 ft 179 kts 48°
2026-04-26 20:45 52.41120 9.50201 2378 ft 150 kts 34°
2026-04-26 20:45 52.42076 9.50249 2286 ft 141 kts 340°
2026-04-26 20:45 52.42961 9.49614 2059 ft 132 kts 347°
2026-04-26 20:45 52.43973 9.49764 1996 ft 163 kts 14°
2026-04-26 20:46 52.45148 9.50294 1841 ft 183 kts 15°
2026-04-26 20:46 52.46325 9.50920 2052 ft 166 kts 22°
2026-04-26 20:46 52.46947 9.52371 2080 ft 158 kts 76°
2026-04-26 20:46 52.47102 9.54276 1422 ft 168 kts 87°
2026-04-26 20:47 52.47097 9.56164 1112 ft 160 kts 91°
2026-04-26 20:47 52.47063 9.57452 944 ft 179 kts 92°
2026-04-26 20:47 52.46990 9.59845 1178 ft 123 kts 92°
2026-04-26 20:47 52.46936 9.61011 973 ft 95 kts 91°
2026-04-26 20:48 52.46916 9.62139 676 ft 99 kts 89°
2026-04-26 20:48 52.46896 9.63276 426 ft 98 kts 92°
2026-04-26 20:48 52.46861 9.64319 305 ft 87 kts 92°
2026-04-26 20:48 52.46843 9.65257 198 ft 80 kts 94°
2026-04-26 20:49 52.46808 9.66128 177 ft 69 kts 91°
2026-04-26 20:49 52.46781 9.66637 179 ft 17 kts 133°
2026-04-26 20:49 52.46691 9.66670 176 ft 0 kts 184°
2026-04-26 20:51 52.46670 9.66668 175 ft 12 kts 181°
2026-04-26 20:52 52.46570 9.66713 174 ft 20 kts 122°
2026-04-26 20:52 52.46553 9.66985 175 ft 28 kts 92°
2026-04-26 20:52 52.46545 9.67279 180 ft 24 kts 93°
2026-04-26 20:52 52.46537 9.67634 179 ft 38 kts 93°
2026-04-26 20:53 52.46526 9.68025 174 ft 33 kts 91°
2026-04-26 20:53 52.46482 9.68350 174 ft 31 kts 128°
2026-04-26 20:53 52.46323 9.68562 176 ft 27 kts 141°
2026-04-26 20:53 52.46248 9.68758 176 ft 23 kts 69°
2026-04-26 20:54 52.46319 9.69074 177 ft 29 kts 68°
2026-04-26 20:54 52.46364 9.69237 177 ft 0 kts 69°
2026-04-26 20:54 52.46348 9.69275 177 ft 13 kts 157°
2026-04-26 20:55 52.46314 9.69348 176 ft 9 kts 345°
2026-04-26 20:55 52.46324 9.69342 176 ft 0 kts 342°